Time,TemperatureF,DewpointF,PressureIn,WindDirection,WindDirectionDegrees,WindSpeedMPH,WindSpeedGustMPH,Humidity,HourlyPrecipIn,Conditions,Clouds,dailyrainin,SoftwareType,DateUTC
2013-08-23 00:00:00,66.7,64.6,30.13,WSW,250,0.0,1.0,93,0.00,,,0.00,WeatherTracker,2013-08-23 05:00:00,
2013-08-23 00:10:00,66.7,64.6,30.13,WSW,250,1.0,1.0,93,0.00,,,0.00,WeatherTracker,2013-08-23 05:10:00,
2013-08-23 00:15:00,66.7,64.6,30.13,SSE,153,0.0,1.0,93,0.00,,,0.00,WeatherTracker,2013-08-23 05:15:00,
2013-08-23 00:20:00,66.7,64.6,30.13,SSE,153,0.0,1.0,93,0.00,,,0.00,WeatherTracker,2013-08-23 05:20:00,
2013-08-23 00:25:00,66.7,64.6,30.13,SSE,160,0.0,2.0,93,0.00,,,0.00,WeatherTracker,2013-08-23 05:25:00,
2013-08-23 00:30:00,66.6,64.5,30.13,SSE,160,0.0,2.0,93,0.00,,,0.00,WeatherTracker,2013-08-23 05:30:00,
2013-08-23 00:40:00,66.5,64.4,30.13,SSE,160,0.0,1.0,93,0.00,,,0.00,WeatherTracker,2013-08-23 05:40:00,
2013-08-23 00:50:00,66.1,64.0,30.13,SSE,160,0.0,1.0,93,0.00,,,0.00,WeatherTracker,2013-08-23 05:50:00,
2013-08-23 00:55:00,65.9,63.8,30.13,SSE,160,0.0,1.0,93,0.00,,,0.00,WeatherTracker,2013-08-23 05:55:00,
2013-08-23 01:00:00,65.7,63.3,30.13,SSE,160,0.0,1.0,92,0.00,,,0.00,WeatherTracker,2013-08-23 06:00:00,
2013-08-23 01:05:00,65.5,63.1,30.14,SSE,160,0.0,1.0,92,0.00,,,0.00,WeatherTracker,2013-08-23 06:05:00,
2013-08-23 01:15:00,65.0,62.6,30.14,SSE,160,0.0,1.0,92,0.00,,,0.00,WeatherTracker,2013-08-23 06:15:00,
2013-08-23 01:20:00,64.8,62.4,30.13,SSE,160,0.0,1.0,92,0.00,,,0.00,WeatherTracker,2013-08-23 06:20:00,
2013-08-23 01:25:00,64.7,62.3,30.14,SSE,160,0.0,1.0,92,0.00,,,0.00,WeatherTracker,2013-08-23 06:25:00,
2013-08-23 01:35:00,64.4,62.0,30.13,SSE,160,0.0,0.0,92,0.00,,,0.00,WeatherTracker,2013-08-23 06:35:00,
2013-08-23 01:40:00,64.2,61.8,30.13,SSE,160,0.0,0.0,92,0.00,,,0.00,WeatherTracker,2013-08-23 06:40:00,
2013-08-23 01:45:00,64.0,61.6,30.13,SSE,160,0.0,0.0,92,0.00,,,0.00,WeatherTracker,2013-08-23 06:45:00,
2013-08-23 01:55:00,63.6,61.2,30.13,SSE,160,0.0,0.0,92,0.00,,,0.00,WeatherTracker,2013-08-23 06:55:00,
2013-08-23 02:00:00,63.5,60.8,30.13,SSE,160,0.0,1.0,91,0.00,,,0.00,WeatherTracker,2013-08-23 07:00:00,
2013-08-23 02:05:00,63.3,60.6,30.13,SSE,160,0.0,1.0,91,0.00,,,0.00,WeatherTracker,2013-08-23 07:05:00,
2013-08-23 02:10:00,63.1,60.4,30.13,SSE,160,0.0,0.0,91,0.00,,,0.00,WeatherTracker,2013-08-23 07:10:00,
2013-08-23 02:20:00,62.8,60.1,30.13,SSE,160,0.0,0.0,91,0.00,,,0.00,WeatherTracker,2013-08-23 07:20:00,
2013-08-23 02:25:00,62.6,59.9,30.14,SSE,160,0.0,0.0,91,0.00,,,0.00,WeatherTracker,2013-08-23 07:25:00,
2013-08-23 02:30:00,62.4,59.7,30.14,SSE,160,0.0,0.0,91,0.00,,,0.00,WeatherTracker,2013-08-23 07:30:00,
2013-08-23 02:35:00,62.3,59.6,30.14,SSE,160,0.0,0.0,91,0.00,,,0.00,WeatherTracker,2013-08-23 07:35:00,
2013-08-23 02:40:00,62.1,59.4,30.14,SSE,160,0.0,0.0,91,0.00,,,0.00,WeatherTracker,2013-08-23 07:40:00,
2013-08-23 02:45:00,62.0,59.3,30.14,SSE,160,0.0,0.0,91,0.00,,,0.00,WeatherTracker,2013-08-23 07:45:00,
2013-08-23 02:55:00,61.7,59.0,30.14,SSE,160,0.0,0.0,91,0.00,,,0.00,WeatherTracker,2013-08-23 07:55:00,
2013-08-23 03:05:00,61.4,58.7,30.14,SSE,160,0.0,0.0,91,0.00,,,0.00,WeatherTracker,2013-08-23 08:05:00,
2013-08-23 03:10:00,61.3,58.6,30.14,SSE,160,0.0,0.0,91,0.00,,,0.00,WeatherTracker,2013-08-23 08:10:00,
2013-08-23 03:15:00,61.2,58.9,30.14,SSE,160,0.0,0.0,92,0.00,,,0.00,WeatherTracker,2013-08-23 08:15:00,
2013-08-23 03:25:00,61.0,58.7,30.14,SSE,160,0.0,0.0,92,0.00,,,0.00,WeatherTracker,2013-08-23 08:25:00,
2013-08-23 03:30:00,60.9,58.6,30.14,SSE,160,0.0,0.0,92,0.00,,,0.00,WeatherTracker,2013-08-23 08:30:00,
2013-08-23 03:40:00,60.8,58.5,30.15,SSE,160,0.0,0.0,92,0.00,,,0.00,WeatherTracker,2013-08-23 08:40:00,
2013-08-23 03:45:00,60.7,58.4,30.15,SSE,160,0.0,0.0,92,0.00,,,0.00,WeatherTracker,2013-08-23 08:45:00,
2013-08-23 03:50:00,60.6,58.3,30.15,SSE,160,0.0,0.0,92,0.00,,,0.00,WeatherTracker,2013-08-23 08:50:00,
2013-08-23 03:55:00,60.5,58.2,30.15,SSE,160,0.0,0.0,92,0.00,,,0.00,WeatherTracker,2013-08-23 08:55:00,
2013-08-23 04:05:00,60.3,58.3,30.15,SSE,160,0.0,0.0,93,0.00,,,0.00,WeatherTracker,2013-08-23 09:05:00,
2013-08-23 04:10:00,60.2,57.9,30.15,SSE,160,0.0,0.0,92,0.00,,,0.00,WeatherTracker,2013-08-23 09:10:00,
2013-08-23 04:15:00,60.1,58.1,30.15,SSE,160,0.0,0.0,93,0.00,,,0.00,WeatherTracker,2013-08-23 09:15:00,
2013-08-23 04:20:00,60.0,58.0,30.15,SSE,160,0.0,0.0,93,0.00,,,0.00,WeatherTracker,2013-08-23 09:20:00,
2013-08-23 04:30:00,59.9,57.9,30.15,SSE,160,0.0,0.0,93,0.00,,,0.00,WeatherTracker,2013-08-23 09:30:00,
2013-08-23 04:40:00,59.7,57.7,30.16,SSE,160,0.0,0.0,93,0.00,,,0.00,WeatherTracker,2013-08-23 09:40:00,
2013-08-23 04:45:00,59.6,57.6,30.16,SSE,160,0.0,0.0,93,0.00,,,0.00,WeatherTracker,2013-08-23 09:45:00,
2013-08-23 05:05:00,59.5,57.5,30.16,SSE,160,0.0,0.0,93,0.00,,,0.00,WeatherTracker,2013-08-23 10:05:00,
2013-08-23 05:10:00,59.5,57.5,30.16,SSE,160,0.0,0.0,93,0.00,,,0.00,WeatherTracker,2013-08-23 10:10:00,
2013-08-23 05:15:00,59.5,57.5,30.16,SSE,160,0.0,0.0,93,0.00,,,0.00,WeatherTracker,2013-08-23 10:15:00,
2013-08-23 05:20:00,59.5,57.5,30.16,SSE,160,0.0,0.0,93,0.00,,,0.00,WeatherTracker,2013-08-23 10:20:00,
2013-08-23 05:30:00,59.4,57.4,30.17,SSE,160,0.0,0.0,93,0.00,,,0.00,WeatherTracker,2013-08-23 10:30:00,
2013-08-23 05:35:00,59.3,57.3,30.17,SSE,160,0.0,0.0,93,0.00,,,0.00,WeatherTracker,2013-08-23 10:35:00,
2013-08-23 05:40:00,59.3,57.3,30.17,SSE,160,0.0,0.0,93,0.00,,,0.00,WeatherTracker,2013-08-23 10:40:00,
2013-08-23 05:45:00,59.2,57.2,30.17,SSE,160,0.0,0.0,93,0.00,,,0.00,WeatherTracker,2013-08-23 10:45:00,
2013-08-23 05:55:00,59.1,57.1,30.18,SSE,160,0.0,0.0,93,0.00,,,0.00,WeatherTracker,2013-08-23 10:55:00,
2013-08-23 06:00:00,59.0,57.0,30.18,SSE,160,0.0,0.0,93,0.00,,,0.00,WeatherTracker,2013-08-23 11:00:00,
2013-08-23 06:05:00,58.9,56.9,30.18,SSE,160,0.0,0.0,93,0.00,,,0.00,WeatherTracker,2013-08-23 11:05:00,
2013-08-23 06:10:00,58.8,57.1,30.18,SSE,160,0.0,0.0,94,0.00,,,0.00,WeatherTracker,2013-08-23 11:10:00,
2013-08-23 06:15:00,58.7,57.0,30.18,SSE,160,0.0,1.0,94,0.00,,,0.00,WeatherTracker,2013-08-23 11:15:00,
2013-08-23 06:25:00,58.6,56.9,30.18,SSE,160,0.0,0.0,94,0.00,,,0.00,WeatherTracker,2013-08-23 11:25:00,
2013-08-23 06:30:00,58.5,56.5,30.18,SSE,160,0.0,0.0,93,0.00,,,0.00,WeatherTracker,2013-08-23 11:30:00,
2013-08-23 06:40:00,58.4,56.7,30.19,SSE,160,0.0,0.0,94,0.00,,,0.00,WeatherTracker,2013-08-23 11:40:00,
2013-08-23 06:45:00,58.4,56.7,30.19,SSE,160,0.0,0.0,94,0.00,,,0.00,WeatherTracker,2013-08-23 11:45:00,
2013-08-23 06:50:00,58.4,56.7,30.19,SSE,160,0.0,0.0,94,0.00,,,0.00,WeatherTracker,2013-08-23 11:50:00,
2013-08-23 06:55:00,58.3,56.6,30.19,SSE,160,0.0,0.0,94,0.00,,,0.00,WeatherTracker,2013-08-23 11:55:00,
2013-08-23 07:05:00,58.2,56.5,30.19,SSE,160,0.0,0.0,94,0.00,,,0.00,WeatherTracker,2013-08-23 12:05:00,
2013-08-23 07:10:00,58.2,56.5,30.19,SSE,160,0.0,0.0,94,0.00,,,0.00,WeatherTracker,2013-08-23 12:10:00,
2013-08-23 07:15:00,58.2,56.5,30.20,SSE,160,0.0,0.0,94,0.00,,,0.00,WeatherTracker,2013-08-23 12:15:00,
2013-08-23 07:25:00,58.2,56.5,30.20,SSE,160,0.0,0.0,94,0.00,,,0.00,WeatherTracker,2013-08-23 12:25:00,
2013-08-23 07:30:00,58.2,56.5,30.20,SSE,160,0.0,0.0,94,0.00,,,0.00,WeatherTracker,2013-08-23 12:30:00,
2013-08-23 07:40:00,58.4,56.7,30.20,SSE,160,0.0,0.0,94,0.00,,,0.00,WeatherTracker,2013-08-23 12:40:00,
2013-08-23 07:45:00,58.4,56.7,30.20,SSE,160,0.0,0.0,94,0.00,,,0.00,WeatherTracker,2013-08-23 12:45:00,
2013-08-23 07:50:00,58.6,56.9,30.20,SSE,160,0.0,0.0,94,0.00,,,0.00,WeatherTracker,2013-08-23 12:50:00,
2013-08-23 07:55:00,58.8,57.4,30.20,SSE,160,0.0,0.0,95,0.00,,,0.00,WeatherTracker,2013-08-23 12:55:00,
2013-08-23 08:05:00,59.3,57.9,30.20,SSE,160,0.0,0.0,95,0.00,,,0.00,WeatherTracker,2013-08-23 13:05:00,
2013-08-23 08:10:00,59.5,58.1,30.20,SSE,160,0.0,0.0,95,0.00,,,0.00,WeatherTracker,2013-08-23 13:10:00,
2013-08-23 08:15:00,59.7,58.6,30.20,SSE,160,0.0,1.0,96,0.00,,,0.00,WeatherTracker,2013-08-23 13:15:00,
2013-08-23 08:20:00,60.0,58.9,30.20,SSE,160,0.0,1.0,96,0.00,,,0.00,WeatherTracker,2013-08-23 13:20:00,
2013-08-23 08:30:00,60.6,59.5,30.20,SSE,163,2.0,2.0,96,0.00,,,0.00,WeatherTracker,2013-08-23 13:30:00,
2013-08-23 08:35:00,60.9,59.8,30.21,SSE,163,0.0,3.0,96,0.00,,,0.00,WeatherTracker,2013-08-23 13:35:00,
2013-08-23 08:40:00,61.2,60.0,30.21,SSE,163,0.0,3.0,96,0.00,,,0.00,WeatherTracker,2013-08-23 13:40:00,
2013-08-23 08:45:00,61.5,60.3,30.21,SSE,163,0.0,2.0,96,0.00,,,0.00,WeatherTracker,2013-08-23 13:45:00,
2013-08-23 08:55:00,61.9,60.7,30.21,SSE,163,0.0,1.0,96,0.00,,,0.00,WeatherTracker,2013-08-23 13:55:00,
2013-08-23 09:00:00,62.1,60.9,30.21,SSE,162,3.0,3.0,96,0.00,,,0.00,WeatherTracker,2013-08-23 14:00:00,
2013-08-23 09:05:00,63.2,62.0,30.21,SSE,161,0.0,3.0,96,0.00,,,0.00,WeatherTracker,2013-08-23 14:05:00,
2013-08-23 09:15:00,66.2,62.5,30.21,SE,131,0.0,2.0,88,0.00,,,0.00,WeatherTracker,2013-08-23 14:15:00,
2013-08-23 09:20:00,66.8,62.1,30.21,South,187,0.0,3.0,85,0.00,,,0.00,WeatherTracker,2013-08-23 14:20:00,
2013-08-23 09:25:00,67.8,62.1,30.21,SSE,155,0.0,3.0,82,0.00,,,0.00,WeatherTracker,2013-08-23 14:25:00,
2013-08-23 09:35:00,68.9,62.8,30.21,South,171,0.0,3.0,81,0.00,,,0.00,WeatherTracker,2013-08-23 14:35:00,
2013-08-23 09:40:00,69.2,62.8,30.21,East,90,1.0,4.0,80,0.00,,,0.00,WeatherTracker,2013-08-23 14:40:00,
2013-08-23 09:50:00,69.8,62.6,30.21,SE,132,0.0,4.0,78,0.00,,,0.00,WeatherTracker,2013-08-23 14:50:00,
2013-08-23 09:55:00,70.2,63.0,30.21,SSE,158,0.0,3.0,78,0.00,,,0.00,WeatherTracker,2013-08-23 14:55:00,
2013-08-23 10:00:00,70.3,61.6,30.21,SSE,163,0.0,4.0,74,0.00,,,0.00,WeatherTracker,2013-08-23 15:00:00,
2013-08-23 10:05:00,70.5,62.2,30.21,SSE,159,0.0,4.0,75,0.00,,,0.00,WeatherTracker,2013-08-23 15:05:00,
2013-08-23 10:15:00,70.8,60.9,30.21,SSE,161,0.0,3.0,71,0.00,,,0.00,WeatherTracker,2013-08-23 15:15:00,
2013-08-23 10:20:00,70.8,60.9,30.21,SE,146,1.0,4.0,71,0.00,,,0.00,WeatherTracker,2013-08-23 15:20:00,
2013-08-23 10:25:00,71.6,61.7,30.21,East,93,0.0,4.0,71,0.00,,,0.00,WeatherTracker,2013-08-23 15:25:00,
2013-08-23 10:30:00,72.3,61.1,30.21,SE,134,4.0,4.0,68,0.00,,,0.00,WeatherTracker,2013-08-23 15:30:00,
2013-08-23 10:40:00,72.9,63.3,30.21,SSE,155,0.0,5.0,72,0.00,,,0.00,WeatherTracker,2013-08-23 15:40:00,
2013-08-23 10:45:00,73.1,61.9,30.21,SSE,148,0.0,3.0,68,0.00,,,0.00,WeatherTracker,2013-08-23 15:45:00,
2013-08-23 10:50:00,73.6,62.4,30.21,SSE,149,2.0,3.0,68,0.00,,,0.00,WeatherTracker,2013-08-23 15:50:00,
2013-08-23 10:55:00,74.3,63.0,30.21,SSW,199,6.0,6.0,68,0.00,,,0.00,WeatherTracker,2013-08-23 15:55:00,
2013-08-23 11:05:00,74.6,63.7,30.21,SSE,163,0.0,6.0,69,0.00,,,0.00,WeatherTracker,2013-08-23 16:05:00,
2013-08-23 11:10:00,75.2,64.7,30.21,SSE,161,0.0,3.0,70,0.00,,,0.00,WeatherTracker,2013-08-23 16:10:00,
2013-08-23 11:20:00,76.1,62.1,30.21,SSE,152,2.0,6.0,62,0.00,,,0.00,WeatherTracker,2013-08-23 16:20:00,
2013-08-23 11:25:00,76.4,63.7,30.21,South,184,4.0,4.0,65,0.00,,,0.00,WeatherTracker,2013-08-23 16:25:00,
2013-08-23 11:30:00,76.7,62.7,30.21,ESE,115,2.0,4.0,62,0.00,,,0.00,WeatherTracker,2013-08-23 16:30:00,
2013-08-23 11:35:00,76.9,62.4,30.21,ESE,113,2.0,4.0,61,0.00,,,0.00,WeatherTracker,2013-08-23 16:35:00,
2013-08-23 11:45:00,77.3,62.3,30.21,South,178,2.0,4.0,60,0.00,,,0.00,WeatherTracker,2013-08-23 16:45:00,
2013-08-23 11:50:00,77.7,65.8,30.20,WSW,252,2.0,4.0,67,0.00,,,0.00,WeatherTracker,2013-08-23 16:50:00,
2013-08-23 11:55:00,78.3,64.2,30.20,ENE,72,3.0,8.0,62,0.00,,,0.00,WeatherTracker,2013-08-23 16:55:00,
2013-08-23 12:00:00,78.6,64.0,30.20,ESE,123,0.0,8.0,61,0.00,,,0.00,WeatherTracker,2013-08-23 17:00:00,
2013-08-23 12:10:00,78.8,63.2,30.20,NNW,331,0.0,4.0,59,0.00,,,0.00,WeatherTracker,2013-08-23 17:10:00,
2013-08-23 12:15:00,79.1,64.0,30.20,ENE,72,1.0,3.0,60,0.00,,,0.00,WeatherTracker,2013-08-23 17:15:00,
2013-08-23 12:20:00,78.7,61.7,30.20,SSE,149,1.0,3.0,56,0.00,,,0.00,WeatherTracker,2013-08-23 17:20:00,
2013-08-23 12:30:00,78.7,65.5,30.20,East,98,0.0,4.0,64,0.00,,,0.00,WeatherTracker,2013-08-23 17:30:00,
2013-08-23 12:40:00,79.2,62.6,30.20,SW,219,3.0,6.0,57,0.00,,,0.00,WeatherTracker,2013-08-23 17:40:00,
2013-08-23 12:45:00,79.7,64.1,30.19,SSE,168,0.0,7.0,59,0.00,,,0.00,WeatherTracker,2013-08-23 17:45:00,
2013-08-23 12:50:00,80.1,64.5,30.19,East,101,1.0,7.0,59,0.00,,,0.00,WeatherTracker,2013-08-23 17:50:00,
2013-08-23 13:00:00,80.5,63.8,30.19,ENE,65,1.0,3.0,57,0.00,,,0.00,WeatherTracker,2013-08-23 18:00:00,
2013-08-23 13:05:00,80.5,65.8,30.19,NE,56,1.0,4.0,61,0.00,,,0.00,WeatherTracker,2013-08-23 18:05:00,
2013-08-23 13:10:00,80.9,65.7,30.19,SE,142,0.0,7.0,60,0.00,,,0.00,WeatherTracker,2013-08-23 18:10:00,
2013-08-23 13:15:00,80.9,63.2,30.19,NW,325,1.0,7.0,55,0.00,,,0.00,WeatherTracker,2013-08-23 18:15:00,
2013-08-23 13:20:00,81.2,64.0,30.19,SSE,158,0.0,3.0,56,0.00,,,0.00,WeatherTracker,2013-08-23 18:20:00,
2013-08-23 13:30:00,81.3,66.1,30.18,East,98,0.0,4.0,60,0.00,,,0.00,WeatherTracker,2013-08-23 18:30:00,
2013-08-23 13:35:00,80.9,64.2,30.18,SSE,162,3.0,6.0,57,0.00,,,0.00,WeatherTracker,2013-08-23 18:35:00,
2013-08-23 13:40:00,80.5,64.8,30.18,SSE,155,1.0,6.0,59,0.00,,,0.00,WeatherTracker,2013-08-23 18:40:00,
2013-08-23 13:45:00,80.5,63.8,30.18,SE,138,1.0,5.0,57,0.00,,,0.00,WeatherTracker,2013-08-23 18:45:00,
2013-08-23 13:55:00,81.1,65.4,30.18,East,87,2.0,7.0,59,0.00,,,0.00,WeatherTracker,2013-08-23 18:55:00,
2013-08-23 14:00:00,81.3,65.1,30.18,South,175,0.0,3.0,58,0.00,,,0.00,WeatherTracker,2013-08-23 19:00:00,
2013-08-23 14:05:00,81.9,65.1,30.18,SSE,165,4.0,4.0,57,0.00,,,0.00,WeatherTracker,2013-08-23 19:05:00,
2013-08-23 14:15:00,81.0,65.3,30.18,ESE,106,0.0,4.0,59,0.00,,,0.00,WeatherTracker,2013-08-23 19:15:00,
2013-08-23 14:20:00,81.9,63.1,30.17,South,171,3.0,7.0,53,0.00,,,0.00,WeatherTracker,2013-08-23 19:20:00,
2013-08-23 14:25:00,82.0,65.2,30.17,ESE,118,2.0,7.0,57,0.00,,,0.00,WeatherTracker,2013-08-23 19:25:00,
2013-08-23 14:30:00,81.6,63.8,30.17,SSW,199,2.0,3.0,55,0.00,,,0.00,WeatherTracker,2013-08-23 19:30:00,
2013-08-23 14:35:00,81.2,65.0,30.17,SSE,156,2.0,4.0,58,0.00,,,0.00,WeatherTracker,2013-08-23 19:35:00,
2013-08-23 14:45:00,82.0,63.2,30.17,SE,133,0.0,5.0,53,0.00,,,0.00,WeatherTracker,2013-08-23 19:45:00,
2013-08-23 14:50:00,81.5,62.2,30.17,ESE,104,0.0,2.0,52,0.00,,,0.00,WeatherTracker,2013-08-23 19:50:00,
2013-08-23 14:55:00,81.4,63.7,30.17,ESE,122,0.0,5.0,55,0.00,,,0.00,WeatherTracker,2013-08-23 19:55:00,
2013-08-23 15:05:00,80.9,62.1,30.17,ENE,76,1.0,5.0,53,0.00,,,0.00,WeatherTracker,2013-08-23 20:05:00,
2013-08-23 15:10:00,81.3,63.6,30.16,East,96,0.0,5.0,55,0.00,,,0.00,WeatherTracker,2013-08-23 20:10:00,
2013-08-23 15:15:00,81.2,63.5,30.16,ESE,107,1.0,6.0,55,0.00,,,0.00,WeatherTracker,2013-08-23 20:15:00,
2013-08-23 15:20:00,81.0,60.6,30.16,SE,138,0.0,6.0,50,0.00,,,0.00,WeatherTracker,2013-08-23 20:20:00,
2013-08-23 15:25:00,80.9,62.7,30.16,East,100,1.0,5.0,54,0.00,,,0.00,WeatherTracker,2013-08-23 20:25:00,
2013-08-23 15:35:00,80.5,62.8,30.16,SSW,210,0.0,4.0,55,0.00,,,0.00,WeatherTracker,2013-08-23 20:35:00,
2013-08-23 15:40:00,80.6,59.1,30.16,East,98,0.0,4.0,48,0.00,,,0.00,WeatherTracker,2013-08-23 20:40:00,
2013-08-23 15:45:00,80.9,59.9,30.16,South,182,1.0,2.0,49,0.00,,,0.00,WeatherTracker,2013-08-23 20:45:00,
2013-08-23 15:50:00,80.7,61.4,30.16,SE,126,1.0,2.0,52,0.00,,,0.00,WeatherTracker,2013-08-23 20:50:00,
2013-08-23 16:00:00,80.6,62.9,30.16,ESE,112,0.0,4.0,55,0.00,,,0.00,WeatherTracker,2013-08-23 21:00:00,
2013-08-23 16:05:00,80.4,60.0,30.16,South,188,0.0,3.0,50,0.00,,,0.00,WeatherTracker,2013-08-23 21:05:00,
2013-08-23 16:10:00,80.4,63.2,30.16,SE,138,0.0,3.0,56,0.00,,,0.00,WeatherTracker,2013-08-23 21:10:00,
2013-08-23 16:15:00,80.1,61.4,30.16,ESE,113,1.0,2.0,53,0.00,,,0.00,WeatherTracker,2013-08-23 21:15:00,
2013-08-23 16:20:00,80.2,60.4,30.16,SE,130,1.0,4.0,51,0.00,,,0.00,WeatherTracker,2013-08-23 21:20:00,
2013-08-23 16:30:00,79.9,61.7,30.16,East,98,0.0,4.0,54,0.00,,,0.00,WeatherTracker,2013-08-23 21:30:00,
2013-08-23 16:35:00,80.0,62.4,30.16,SSE,159,0.0,4.0,55,0.00,,,0.00,WeatherTracker,2013-08-23 21:35:00,
2013-08-23 16:40:00,79.9,61.7,30.16,SSE,159,0.0,3.0,54,0.00,,,0.00,WeatherTracker,2013-08-23 21:40:00,
2013-08-23 16:45:00,79.8,61.7,30.16,South,178,2.0,3.0,54,0.00,,,0.00,WeatherTracker,2013-08-23 21:45:00,
2013-08-23 16:55:00,79.5,59.8,30.15,SSW,203,0.0,5.0,51,0.00,,,0.00,WeatherTracker,2013-08-23 21:55:00,
2013-08-23 17:00:00,79.5,61.9,30.15,South,180,1.0,5.0,55,0.00,,,0.00,WeatherTracker,2013-08-23 22:00:00,
2013-08-23 17:05:00,79.3,61.2,30.15,SSE,151,0.0,5.0,54,0.00,,,0.00,WeatherTracker,2013-08-23 22:05:00,
2013-08-23 17:10:00,79.3,60.7,30.15,SSE,151,1.0,5.0,53,0.00,,,0.00,WeatherTracker,2013-08-23 22:10:00,
2013-08-23 17:20:00,79.0,60.4,30.15,South,187,1.0,4.0,53,0.00,,,0.00,WeatherTracker,2013-08-23 22:20:00,
2013-08-23 17:25:00,78.8,60.7,30.15,South,183,1.0,3.0,54,0.00,,,0.00,WeatherTracker,2013-08-23 22:25:00,
2013-08-23 17:30:00,78.7,60.1,30.15,SE,144,0.0,4.0,53,0.00,,,0.00,WeatherTracker,2013-08-23 22:30:00,
2013-08-23 17:40:00,78.5,61.0,30.15,SW,225,0.0,4.0,55,0.00,,,0.00,WeatherTracker,2013-08-23 22:40:00,
2013-08-23 17:45:00,78.4,61.9,30.15,SW,225,1.0,2.0,57,0.00,,,0.00,WeatherTracker,2013-08-23 22:45:00,
2013-08-23 17:50:00,78.4,61.4,30.15,SE,133,2.0,2.0,56,0.00,,,0.00,WeatherTracker,2013-08-23 22:50:00,
2013-08-23 17:55:00,78.3,61.3,30.15,SE,133,0.0,3.0,56,0.00,,,0.00,WeatherTracker,2013-08-23 22:55:00,
2013-08-23 18:00:00,78.2,61.2,30.15,ENE,71,0.0,3.0,56,0.00,,,0.00,WeatherTracker,2013-08-23 23:00:00,
2013-08-23 18:10:00,78.0,61.0,30.15,South,171,0.0,3.0,56,0.00,,,0.00,WeatherTracker,2013-08-23 23:10:00,
2013-08-23 18:15:00,78.0,61.0,30.15,SE,132,0.0,4.0,56,0.00,,,0.00,WeatherTracker,2013-08-23 23:15:00,
2013-08-23 18:20:00,78.0,61.5,30.15,SE,132,0.0,4.0,57,0.00,,,0.00,WeatherTracker,2013-08-23 23:20:00,
2013-08-23 18:25:00,78.0,62.0,30.15,SSW,200,0.0,3.0,58,0.00,,,0.00,WeatherTracker,2013-08-23 23:25:00,
2013-08-23 18:35:00,77.8,61.8,30.15,SE,138,0.0,3.0,58,0.00,,,0.00,WeatherTracker,2013-08-23 23:35:00,
2013-08-23 18:40:00,77.6,62.6,30.15,SSE,159,0.0,4.0,60,0.00,,,0.00,WeatherTracker,2013-08-23 23:40:00,
2013-08-23 18:45:00,77.4,61.4,30.15,SSE,159,1.0,4.0,58,0.00,,,0.00,WeatherTracker,2013-08-23 23:45:00,
2013-08-23 18:55:00,76.9,62.9,30.15,SSE,159,0.0,2.0,62,0.00,,,0.00,WeatherTracker,2013-08-23 23:55:00,
2013-08-23 19:00:00,76.5,61.6,30.15,SSE,159,0.0,2.0,60,0.00,,,0.00,WeatherTracker,2013-08-24 00:00:00,
2013-08-23 19:05:00,76.2,62.7,30.15,SSE,159,0.0,1.0,63,0.00,,,0.00,WeatherTracker,2013-08-24 00:05:00,
2013-08-23 19:10:00,75.8,61.8,30.15,SSE,159,0.0,1.0,62,0.00,,,0.00,WeatherTracker,2013-08-24 00:10:00,
2013-08-23 19:15:00,75.5,62.0,30.15,SSE,159,0.0,0.0,63,0.00,,,0.00,WeatherTracker,2013-08-24 00:15:00,
2013-08-23 19:25:00,74.7,61.7,30.14,SSE,159,0.0,0.0,64,0.00,,,0.00,WeatherTracker,2013-08-24 00:25:00,
2013-08-23 19:30:00,74.4,61.9,30.14,SSE,159,0.0,0.0,65,0.00,,,0.00,WeatherTracker,2013-08-24 00:30:00,
2013-08-23 19:35:00,73.9,61.8,30.15,SSE,159,0.0,1.0,66,0.00,,,0.00,WeatherTracker,2013-08-24 00:35:00,
2013-08-23 19:40:00,73.5,61.4,30.15,SSE,159,0.0,1.0,66,0.00,,,0.00,WeatherTracker,2013-08-24 00:40:00,
2013-08-23 19:50:00,72.7,61.1,30.15,SSE,159,0.0,0.0,67,0.00,,,0.00,WeatherTracker,2013-08-24 00:50:00,
2013-08-23 19:55:00,72.2,61.0,30.15,SSE,159,0.0,0.0,68,0.00,,,0.00,WeatherTracker,2013-08-24 00:55:00,
2013-08-23 20:00:00,71.9,60.8,30.15,SSE,159,0.0,0.0,68,0.00,,,0.00,WeatherTracker,2013-08-24 01:00:00,
2013-08-23 20:10:00,71.1,61.2,30.15,SSE,159,0.0,0.0,71,0.00,,,0.00,WeatherTracker,2013-08-24 01:10:00,
2013-08-23 20:15:00,70.8,60.9,30.15,SSE,159,0.0,0.0,71,0.00,,,0.00,WeatherTracker,2013-08-24 01:15:00,
2013-08-23 20:25:00,70.1,60.6,30.15,SSE,159,0.0,0.0,72,0.00,,,0.00,WeatherTracker,2013-08-24 01:25:00,
2013-08-23 20:30:00,69.8,61.1,30.16,SSE,159,0.0,0.0,74,0.00,,,0.00,WeatherTracker,2013-08-24 01:30:00,
2013-08-23 20:35:00,69.5,60.5,30.16,SSE,159,0.0,0.0,73,0.00,,,0.00,WeatherTracker,2013-08-24 01:35:00,
2013-08-23 20:40:00,69.2,60.6,30.16,SSE,159,0.0,0.0,74,0.00,,,0.00,WeatherTracker,2013-08-24 01:40:00,
2013-08-23 20:50:00,68.7,60.8,30.16,SSE,159,0.0,0.0,76,0.00,,,0.00,WeatherTracker,2013-08-24 01:50:00,
2013-08-23 20:55:00,68.5,60.6,30.16,SSE,159,0.0,0.0,76,0.00,,,0.00,WeatherTracker,2013-08-24 01:55:00,
2013-08-23 21:05:00,67.9,60.4,30.17,SSE,159,0.0,0.0,77,0.00,,,0.00,WeatherTracker,2013-08-24 02:05:00,
2013-08-23 21:10:00,67.7,60.6,30.17,SSE,159,0.0,1.0,78,0.00,,,0.00,WeatherTracker,2013-08-24 02:10:00,
2013-08-23 21:15:00,67.5,60.4,30.17,SSE,159,0.0,1.0,78,0.00,,,0.00,WeatherTracker,2013-08-24 02:15:00,
2013-08-23 21:20:00,67.3,59.8,30.17,SSE,159,0.0,1.0,77,0.00,,,0.00,WeatherTracker,2013-08-24 02:20:00,
2013-08-23 21:25:00,67.1,60.0,30.17,SSE,158,0.0,1.0,78,0.00,,,0.00,WeatherTracker,2013-08-24 02:25:00,
2013-08-23 21:30:00,66.9,59.8,30.18,SSE,158,0.0,1.0,78,0.00,,,0.00,WeatherTracker,2013-08-24 02:30:00,
2013-08-23 21:40:00,66.5,59.1,30.18,SSE,149,0.0,3.0,77,0.00,,,0.00,WeatherTracker,2013-08-24 02:40:00,
2013-08-23 21:45:00,66.3,59.2,30.18,SSE,149,0.0,3.0,78,0.00,,,0.00,WeatherTracker,2013-08-24 02:45:00,
2013-08-23 21:50:00,66.1,59.0,30.18,SSE,149,0.0,2.0,78,0.00,,,0.00,WeatherTracker,2013-08-24 02:50:00,
2013-08-23 21:55:00,65.9,58.8,30.18,SSE,149,0.0,2.0,78,0.00,,,0.00,WeatherTracker,2013-08-24 02:55:00,
2013-08-23 22:00:00,65.8,58.7,30.18,South,174,2.0,2.0,78,0.00,,,0.00,WeatherTracker,2013-08-24 03:00:00,
2013-08-23 22:10:00,65.5,58.5,30.18,SE,132,2.0,5.0,78,0.00,,,0.00,WeatherTracker,2013-08-24 03:10:00,
2013-08-23 22:15:00,65.3,58.3,30.18,SE,132,0.0,3.0,78,0.00,,,0.00,WeatherTracker,2013-08-24 03:15:00,
2013-08-23 22:20:00,65.1,58.1,30.18,SSE,153,3.0,3.0,78,0.00,,,0.00,WeatherTracker,2013-08-24 03:20:00,
2013-08-23 22:30:00,64.9,57.9,30.19,SSE,167,0.0,3.0,78,0.00,,,0.00,WeatherTracker,2013-08-24 03:30:00,
2013-08-23 22:35:00,64.7,57.7,30.19,SSE,165,0.0,3.0,78,0.00,,,0.00,WeatherTracker,2013-08-24 03:35:00,
2013-08-23 22:45:00,64.4,57.4,30.19,SE,144,0.0,4.0,78,0.00,,,0.00,WeatherTracker,2013-08-24 03:45:00,
2013-08-23 22:50:00,64.3,57.3,30.19,SE,146,1.0,2.0,78,0.00,,,0.00,WeatherTracker,2013-08-24 03:50:00,
2013-08-23 22:55:00,64.2,57.5,30.19,SE,146,0.0,2.0,79,0.00,,,0.00,WeatherTracker,2013-08-24 03:55:00,
2013-08-23 23:00:00,64.1,57.4,30.19,SSE,148,1.0,3.0,79,0.00,,,0.00,WeatherTracker,2013-08-24 04:00:00,
2013-08-23 23:05:00,64.0,57.4,30.19,SSE,149,0.0,3.0,79,0.00,,,0.00,WeatherTracker,2013-08-24 04:05:00,
2013-08-23 23:10:00,63.8,57.2,30.19,SSE,155,0.0,3.0,79,0.00,,,0.00,WeatherTracker,2013-08-24 04:10:00,
2013-08-23 23:15:00,63.8,57.2,30.19,SSE,155,0.0,3.0,79,0.00,,,0.00,WeatherTracker,2013-08-24 04:15:00,
2013-08-23 23:20:00,63.6,57.3,30.19,SSE,155,0.0,2.0,80,0.00,,,0.00,WeatherTracker,2013-08-24 04:20:00,
2013-08-23 23:25:00,63.5,57.2,30.19,SSE,154,0.0,2.0,80,0.00,,,0.00,WeatherTracker,2013-08-24 04:25:00,
2013-08-23 23:35:00,63.3,57.0,30.19,SSE,154,1.0,2.0,80,0.00,,,0.00,WeatherTracker,2013-08-24 04:35:00,
2013-08-23 23:40:00,63.2,56.9,30.19,SSE,154,0.0,2.0,80,0.00,,,0.00,WeatherTracker,2013-08-24 04:40:00,
2013-08-23 23:45:00,63.1,56.8,30.19,SSE,154,0.0,1.0,80,0.00,,,0.00,WeatherTracker,2013-08-24 04:45:00,
2013-08-23 23:50:00,63.0,56.7,30.19,SSE,154,0.0,1.0,80,0.00,,,0.00,WeatherTracker,2013-08-24 04:50:00,